Showing default

ICEYE-X33, 60548

Orbit data source: Space-Track

ICEYE-X33, 60548 is an American payload satellite in SSO that was launched on Fri, 16 Aug 2024 UTC via an FALCON 9 launch vehicle from the Air Force Western Test Range (AFWTR). Payload-class satellites include a variety of spacecraft equipped with specific instruments for various scientific and technological missions. These include communications satellites like Starlink; space stations such as the ISS; scientific satellites like the Hubble; Earth observation satellites from companies like Planet Labs, Umbra, and HawkEye 360; GPS; miniature CubeSats for education and research; and military/defense satellites.

Loading next visibility...
Identifier
60548, 2024-149CJ
Orbit
SSO
Country
Flag of USUS
Related business
Manufacturer
ICEYE
Mission
Operational Commercial Radar Imaging
Bus & Motor
ICEYE, Unknown motor
Mass
80 kg wet, 80 kg dry
Launch date (UTC)
2024-08-16 (1 year ago)
Launch vehicle
FALCON 9
Launch site
Air Force Western Test Range (AFWTR)
Object type
Payload
Rocket body
Debris
Shape & HBR
Box + 1 Pan, 0.8 m
Radar Cross Section
0.776 m², Medium (>0.1 m² and < 1m²)

Expand to show TLE details & history
Last TLE update: 23 hours ago

TLE from 23 hours ago
0 ICEYE-X33
1 60548U 24149CJ  26034.17810586  .00004927  00000-0  39299-3 0  9991
2 60548  97.7071 114.3066 0004871 216.4608 143.6285 15.00759856 80108
Epoch: 2026-02-03T04:16Z
TLE epoch observation values (Epoch: 2026-02-03T04:16:28.346Z)
Latitude
0.00002°
Longitude
-83.17428°
Altitude
570.331 km
Speed
7.574 km/s
True Right ascension
07h 37m 13s
True Declination
0° 00' 00"
Sunlit
Object was in full shadow at epoch
Visualization orbit readout
Latitude
Unknown
Longitude
Unknown
Altitude
Unknown
Speed
Unknown
Apparent Right ascension
Unknown
Apparent Declination
Unknown
Sunlit
N/A
Visualization observer readout
Local Sidereal Time
05:01:48
Azimuth
Unknown
Elevation
Unknown
Doppler factor
Unknown
Orbital elements
Apogee altitude
564.937 km
Perigee altitude
558.176 km
Semi-major axis
6,939.693 km
Eccentricity
0.00049
Inclination
97.7071°
RAAN
114.3066°
Arg. of periapsis
216.4608°
True anomaly
143.66158°
Mean anomaly
143.6285°
Eccentric anomaly
143.64504°
Mean motion
3.75433 °/min
Orbital period
95.89 mins
BSTAR
0.00039299
Loading maneuver chart data...
Computing Atmospheric mass density...
Loading historical data...
Loading historical data...
Loading historical data...
Loading historical data...
Loading historical data...
Loading historical data...
Loading historical data...

Documentation

Showing up to 5 results
|